Location: São Paulo
(23.5507°S, 46.6334°W)
Time: 17:47:09
(UTC-03:00)

A-11 Canister half - Pass Details

Date: 11 February 2026
Orbit: 1524 x 1683 km, 47.3° (Epoch: 13 March)

Event Time Altitude Azimuth Distance (km) Brightness Sun altitude
Exits shadow 03:34:45 24° 4° (N) 2,902 10.1 -29.5°
Maximum altitude 03:39:48 39° 53° (NE) 2,322 10.0 -28.6°
Drops below altitude 10° 03:48:54 10° 117° (ESE) 3,953 12.1 -26.8°
Sets 03:52:22 0° 124° (SE) 4,949 13.0 -26.1°
